Weather in Teruel

Spain     40°20′29″N   1°06′30″W
temp.,
°C
wind,
m/s
gust,
m/s
humid.,
%
clouds,
%
prec.,
mm/h
press.,
hPa
HPBL,
m
13 april, tue
tue1323:00+4e1175100 0.0 102610
02:00+6sw016499 0.0 102511
05:00+5sw1174100 0.0 102410
08:00+4sse117976 0.0 102410
11:00+10ssw1261100 0.0 1023682
14:00+14wsw234284 0.0 10211918
17:00+12wsw2457100 0.1 10201249
20:00+10ssw2373100 0.4 1020449
14 april, wed
wed1423:00+9se2288100 0.1 1022166
02:00+7sse119581 0.2 102127
05:00+6ssw119398 0.0 102010
08:00+6sse229463 0.0 102014
11:00+11sse1172100 0.0 1019601
14:00+14ese3257100 0.1 10171205
17:00+11se5573100 0.8 1016608
20:00+8ese3487100 1.2 1018385
15 april, thu
thu1523:00+7ese3491100 0.2 1020344
02:00+6ese2394100 1.0 1019284
05:00+5ese239296 0.1 1018198
08:00+4ese229484 0.1 1019132
11:00+8ese2377100 0.0 1017480
14:00+10ese4370100 0.1 1016920
17:00+8ese3482100 0.0 1016519
20:00+6ese3382100 0.0 1017318
16 april, fri
fri1623:00+5ese1289100 0.0 101857
02:00+3e1193100 0.0 101710
05:00+3nnw229133 0.0 101716
08:00+2nw22845 0.0 101844
11:00+7nnw345011 0.0 1016770
14:00+10nw45424 0.0 10131364
17:00+12nnw363698 0.0 10112076
20:00+5n995858 0.0 1016823
17 april, sat
sat1723:000nnw813655 0.0 1021914
02:00−2nw6137014 0.0 1020895
05:00−1nw81494100 0.4 10171207
08:00−1nnw81489100 1.0 10181119
11:00+3n9136579 0.1 10181308
14:00+8n9114879 0.1 10171825
17:00+10n893923 0.0 10161877
20:00+6nnw67512 0.0 1019954